EHI
0 0 0 0 0 0 0 0 0 0 0 0 0 0 0 0 0 0 0 0 0 0 0 0 0 0 0 0 0 0 0 0 0 0 0 0 0 0 0 0 0 0 0 0
0 0 0 0 0 0 0 0 0 0 0 0 0 0 0 0 0 0 0 0 0 0 0 0 0 0 0 0 0 0 0 0 0 0 0 0 0 0 0 0 0 0 0 0
0 0 0 0 0 0 0 0 0 0 0 0 0 0 0 0 0 0 0 0 0 0 0 0 0 0 0 0 0 0 0 0 0 0 0 0 0 0 0 0 0 0 0 0
0 0 0 0 0 0 0 0 0 0 0 0 0 0 0 0 0 0 0 0 0 0 0 0 0 0 0 0 0 0 0 0 0 0 0 0 0 0 0 0 0 0 0 0
0 0 0 0 0 0 0 0 0 0 0 0 0 0 0 0 0 0 0 0 0 0 0 0 0 0 0 0 0 0 0 0 0 0 0 0 0 0 0 0 0 0 0 0
0 0 0 0 0 0 0 0 0 0 0 0 0 0 0 0 0 0 0 0 0 0 0 0 0 0 0 0 0 0 0 0 0 0 0 0 0 0 0 0 0 0 0 0
0 0 0 0 0 0 0 0 0 0 0 0 0 0 0 0 0 0 0 0 0 0 0 0 0 0 0 0 0 0 0 0 0 0 0 0 0 0 0 0 0 0 0 0
0 0 0 0 0 0 0 0 0 0 0 0 0 0 0 0 0 0 0 0 0 0 0 0 0 0 0 0 0 0 0 0 0 0 0 0 0 0 0 0 0 0 0 0
0 0 0 0 0 0 0 0 0 0 0 0 0 0 0 0 0 0 0 0 0 0 0 0 0 0 0 0 0 0 0 0 0 0 0 0 0 0 0 0 0 0 0 0
0 0 0 0 0 0 0 0 0 0 0 0 0 0 0 0 0 0 0 0 0 0 0 0 0 0 0 0 0 0 0 0 0 0 0 0 0 0 0 0 0 0 0 0
0 0 0 0 0 0 0 0 0 0 0 0 0 0 0 0 0 0 0 0 0 0 0 0 0 0 0 0 0 0 0 0 0 0 0 0 0 0 0 0 0 0 0 0
0 0 0 0 0 0 0 0 0 0 0 0 0 0 0 0 0 0 0 0 0 0 0 0 0 0 0 0 0 0 0 0 0 0 0 0 0 0 0 0 0 0 0 0
0 0 0 0 0 0 0 0 0 0 0 0 0 0 0 0 0 0 0 0 0 0 0 0 0 0 0 0 0 0 0 0 0 0 0 0 0 0 0 0 0 0 0 0
0 0 0 0 0 0 0 0 0 0 0 0 0 0 0 0 0 0 0 0 0 0 0 0 0 0 0 0 0 0 0 0 0 0 0 0 0 0 0 0 0 0 0 0
0 0 0 0 0 0 0 0 0 0 0 0 0 0 0 0 0 0 0 0 0 0 0 0 0 0 0 0 0 0 0 0 0 0 0 0 0 0 0 0 0 0 0 0
0 0 0 0 0 0 0 0 0 0 0 0 0 0 0 0 0 0 0 0 0 0 0 0 0 0 0 0 0 0 0 0 0 0 0 0 0 0 0 0 0 0 0 0
0 0 0 0 0 0 0 0 0 0 0 0 0 0 0 0 0 0 0 0 0 0 0 0 0 0 0 0 0 0 0 0 0 0 0 0 0 0 0 0 0 0 0 0
0 0 0 0 0 0 0 0 0 0 0 0 0 0 0 0 0 0 0 0 0 0 0 0 0 0 0 0 0 0 0 0 0 0 0 0 0 0 0 0 0 0 0 0
0 0 0 0 0 0 0 0 0 0 0 0 0 0 0 0 0 0 0 0 0 0 0 0 0 0 0 0 0 0 0 0 0 0 0 0 0 0 0 0 0 0 0 0
0 0 0 0 0 0 0 0 0 0 0 0 0 0 0 0 0 0 0 0 0 0 0 0 0 0 0 0 0 0 0 0 0 0 0 0 0 0 0 0 0 0 0 0
0 0 0 0 0 0 0 0 0 0 0 0 0 0 0 0 0 0 0 0 0 0 0 0 0 0 0 0 0 0 0 0 0 0 0 0 0 0 0 0 0 0 0 0
0 0 0 0 0 0 0 0 0 0 0 0 0 0 0 0 0 0 0 0 0 0 0 0 0 0 0 0 0 0 0 0 0 0 0 0 0 0 0 0 0 0 0 0
0 0 0 0 0 0 0 0 0 0 0 0 0 0 0 0 0 0 0 0 0 0 0 0 0 0 0 0 0 0 0 0 0 0 0 0 0 0 0 0 0 0 0 0
0 0 0 0 0 0 0 0 0 0 0 0 0 0 0 0 0 0 0 0 0 0 0 0 0 0 0 0 0 0 0 0 0 0 0 0 0 0 0 0 0 0 0 0
0 0 0 0 0 0 0 0 0 0 0 0 0 0 0 0 0 0 0 0 0 0 0 0 0 0 0 0 0 0 0 0 0 0 0 0 0 0 0 0 0 0 0 0
0 0 0 0 0 0 0 0 0 0 0 0 0 0 0 0 0 0 0 0 0 0 0 0 0 0 0 0 0 0 0 0 0 0 0 0 0 0 0 0 0 0 0 0
Wind_Speed
2 1 4 6 7 5 3 3 6 6 4 2 4 7 8 5 3 3 3 2 2 2 2 2 2 1 1 2 2 2 2 3 3 3 3 2 2 2 2 2 3 4 5 6
1 4 6 4 4 4 4 6 6 6 2 2 3 6 6 4 2 2 1 2 2 2 3 4 3 3 2 2 2 2 2 2 3 3 2 2 2 1 2 1 2 2 3 4
4 3 3 3 4 4 5 6 5 5 3 2 3 5 4 3 2 2 2 1 1 1 2 3 3 3 3 3 2 2 2 2 2 3 3 3 2 1 1 1 1 2 2 3
4 4 2 3 4 4 5 5 5 4 2 2 2 3 4 4 4 4 3 3 3 3 3 3 4 5 4 3 2 3 2 2 3 3 3 4 2 1 1 1 1 1 1 2
3 2 2 3 4 4 4 3 3 2 1 2 2 1 5 3 4 4 4 4 3 3 4 4 5 4 4 4 4 3 3 3 3 3 2 3 2 2 1 1 1 1 1 2
3 2 2 3 2 3 2 0 0 1 1 1 2 1 4 2 3 3 3 4 4 4 5 5 5 5 5 5 5 4 4 4 3 2 2 2 3 3 2 1 1 1 2 2
3 2 2 1 1 1 1 2 2 3 2 2 1 1 4 3 2 1 1 3 3 4 4 5 5 6 6 5 5 4 5 4 3 3 3 2 1 2 2 1 1 1 1 1
1 3 2 1 1 1 1 2 3 2 2 3 2 2 4 3 2 2 2 2 3 4 4 4 5 5 5 5 5 5 5 4 4 4 3 2 2 1 1 1 1 1 1 1
0 3 2 1 1 1 1 1 2 3 0 1 3 3 4 2 2 3 3 3 3 3 4 4 5 5 5 6 5 4 4 4 4 4 3 4 3 2 1 1 1 1 1 1
1 2 3 3 2 2 1 2 2 2 1 1 3 3 3 2 1 0 1 1 2 3 3 4 4 5 5 5 5 4 4 4 3 3 2 2 2 2 1 1 1 1 2 2
1 0 3 2 1 1 1 1 2 2 2 2 2 5 3 4 3 3 2 0 1 1 2 3 3 4 4 5 5 5 4 4 3 2 2 2 2 2 2 2 2 1 2 2
0 2 2 4 3 2 1 2 3 2 1 2 2 5 2 3 3 3 2 1 0 1 2 2 3 3 4 4 5 5 4 4 4 3 3 3 3 3 3 3 3 2 2 2
1 2 3 5 4 2 1 1 1 2 3 2 2 6 2 0 1 2 2 1 0 0 1 2 2 3 3 3 4 4 4 5 4 4 4 4 4 4 4 4 3 3 2 2
3 2 3 4 4 2 3 2 1 3 2 3 5 6 5 3 3 2 2 2 1 1 1 1 1 2 3 3 3 3 4 4 4 4 4 4 4 3 3 4 4 4 3 2
3 0 2 4 5 3 5 5 4 5 5 6 6 6 8 6 5 4 3 2 2 1 0 0 1 1 2 3 3 4 4 4 4 4 4 4 4 4 4 4 4 4 4 4
2 0 2 4 3 3 5 6 5 5 4 5 5 8 6 4 2 3 3 3 3 2 2 1 0 1 1 2 2 3 3 3 3 3 3 3 4 4 5 4 4 4 4 4
1 1 1 4 5 5 6 6 6 4 4 6 7 7 2 2 5 6 6 5 5 4 3 2 2 1 1 1 1 1 2 3 3 3 3 4 4 5 5 5 5 5 4 4
2 1 1 2 4 4 6 1 4 4 5 6 5 4 4 5 4 4 5 6 5 4 3 3 2 2 1 1 1 2 2 3 3 4 4 4 5 5 5 5 5 5 4 4
3 3 1 0 3 9 6 2 3 3 6 5 6 5 2 1 2 3 4 5 6 5 3 3 2 2 1 0 1 1 2 3 4 4 5 5 4 4 5 5 4 4 4 4
2 3 2 2 2 6 4 1 1 1 5 3 4 4 3 4 1 5 3 4 3 3 2 2 1 1 1 0 1 2 2 3 4 4 4 4 4 4 4 4 4 3 3 4
1 1 3 3 5 9 6 1 2 2 5 3 3 4 6 7 6 3 2 3 3 3 2 2 2 2 1 0 1 2 1 2 3 3 3 3 3 3 3 4 3 4 4 4
6 4 5 4 4 9 2 4 5 7 3 2 3 4 5 4 2 2 2 2 3 2 2 3 3 1 1 1 2 1 1 2 2 2 3 3 3 3 3 4 4 4 4 4
7 8 6 9 9 5 4 7 5 3 3 3 4 4 4 3 3 2 2 2 2 3 2 2 3 2 1 1 2 1 1 1 2 2 3 3 3 3 3 3 4 4 4 3
5 3 4 6 10 7 8 7 6 5 5 5 4 4 4 4 4 3 3 3 2 2 2 2 3 2 1 1 1 1 0 1 1 1 2 2 3 3 3 3 2 3 3 3
7 5 4 7 9 7 6 7 7 5 5 4 3 4 5 5 4 4 4 4 3 3 2 3 3 3 2 1 1 1 0 0 0 1 2 2 2 3 3 3 2 2 2 3
8 10 9 9 8 6 6 4 3 5 6 5 4 3 3 5 5 5 4 4 4 4 3 3 3 3 3 2 2 1 1 1 0 1 1 1 2 2 2 3 4 4 4 6
Wind_Direction
147 146 218 220 216 235 251 258 276 276 271 246 262 281 295 309 307 293 294 289 287 272 306 338 333 331 64 91 114 144 154 152 140 142 145 153 173 181 171 180 180 184 184 184
108 244 242 231 222 226 242 265 273 285 271 238 286 295 299 306 293 279 280 315 312 359 12 13 6 29 70 92 105 118 152 151 148 148 143 141 145 160 170 185 174 175 186 189
210 249 241 217 224 228 246 237 250 265 307 294 307 312 321 334 352 16 29 21 14 38 33 27 30 55 65 55 69 101 127 133 130 136 127 120 113 104 132 176 179 174 179 190
251 263 255 246 233 215 257 240 244 254 291 312 348 306 320 343 352 8 8 12 16 19 43 52 51 51 52 44 56 88 86 92 102 114 125 140 149 158 195 202 202 179 178 193
257 268 250 251 247 213 239 256 244 240 217 301 325 261 302 349 348 353 11 5 8 24 44 44 41 46 43 36 36 55 64 66 82 98 127 143 150 157 175 169 184 214 225 217
258 276 252 251 266 216 223 332 344 45 102 301 288 225 303 315 307 337 15 12 13 31 44 43 34 42 48 34 32 38 56 51 65 84 95 128 156 161 164 180 198 216 223 213
325 310 299 284 356 7 58 72 25 5 7 271 298 193 270 292 317 39 33 11 19 32 40 39 36 38 41 35 29 36 50 55 64 82 81 86 141 175 178 189 206 230 247 254
359 313 304 315 196 223 223 138 152 204 245 294 346 260 273 310 349 37 51 44 37 32 35 37 34 32 34 32 29 34 38 48 55 61 63 60 64 81 86 51 307 282 277 262
351 293 306 309 265 150 142 159 167 130 94 320 304 299 306 12 41 51 49 47 33 35 36 37 32 27 28 26 21 23 31 33 35 37 43 43 38 32 25 25 4 315 301 283
177 290 311 317 44 34 121 135 95 113 120 314 309 285 262 268 269 38 44 26 13 27 30 31 32 28 27 24 20 19 25 27 21 27 32 26 15 10 350 14 22 328 311 316
81 213 319 358 31 281 36 67 93 107 139 152 286 281 228 213 209 193 206 183 45 30 27 29 26 22 22 21 20 20 21 24 24 27 26 23 5 359 358 357 339 323 309 297
105 106 298 281 268 223 206 179 150 145 235 158 187 271 303 215 208 183 187 176 69 57 37 29 24 23 27 24 17 14 13 21 20 24 28 29 22 19 14 356 337 317 296 281
132 93 6 346 342 353 309 232 145 129 122 159 187 263 318 349 207 197 182 175 164 64 41 34 25 21 19 17 14 11 11 13 11 17 24 23 16 11 3 349 339 326 302 287
101 116 174 219 263 272 281 268 191 143 165 217 227 249 279 261 244 231 201 186 183 176 126 64 27 11 7 4 8 12 7 6 9 15 19 17 6 358 352 343 341 335 330 325
83 159 250 258 270 264 259 258 226 206 204 209 239 237 250 238 230 221 199 180 170 185 167 90 29 4 2 0 4 9 5 2 7 11 9 359 352 355 356 352 353 350 352 351
52 79 320 299 298 292 273 258 238 231 221 232 256 265 254 242 195 188 195 189 195 210 223 238 292 350 342 340 347 354 354 350 5 12 2 357 2 2 358 358 2 2 358 356
18 82 354 295 314 332 281 240 205 218 214 194 221 242 234 224 206 203 202 200 206 209 212 216 235 245 260 287 304 330 336 350 10 13 7 3 3 3 356 358 6 2 356 357
164 128 145 306 353 271 254 239 197 223 246 224 239 246 218 223 225 214 193 193 205 205 204 208 216 238 268 312 340 353 8 12 13 11 9 5 3 0 354 3 4 355 352 350
175 156 144 97 295 282 292 256 187 203 271 229 227 245 242 82 37 289 218 199 203 202 202 202 204 203 195 350 352 30 27 17 13 7 2 356 354 354 354 357 352 348 349 346
89 125 138 158 258 262 271 284 232 114 289 272 203 214 183 127 188 258 211 188 195 191 179 171 157 127 112 15 62 64 32 19 360 347 344 345 349 351 349 345 343 342 343 337
120 125 179 200 243 268 262 271 101 161 263 282 206 200 180 192 214 230 166 180 183 179 174 153 139 144 175 123 93 75 36 348 328 336 343 349 350 350 348 348 345 343 347 347
188 184 200 181 220 260 222 140 192 228 266 246 220 208 201 216 229 191 178 179 171 171 164 149 142 154 159 113 107 87 329 316 342 350 350 350 348 351 356 356 349 349 352 352
206 196 192 200 222 246 204 213 237 228 240 238 224 229 197 200 212 207 193 188 188 179 166 152 153 152 142 131 137 165 289 335 354 358 347 342 348 353 352 353 351 350 352 350
253 199 203 256 263 253 245 244 250 230 232 241 225 215 191 204 206 203 196 195 193 181 173 158 151 157 191 199 175 194 292 344 354 347 338 339 348 350 347 344 344 348 344 340
228 183 213 254 272 291 272 233 237 238 236 234 224 207 201 195 204 202 202 202 199 192 181 170 174 187 208 201 206 218 215 150 327 327 334 336 337 339 333 328 319 324 313 320
198 188 191 228 229 215 252 252 221 219 228 220 212 220 214 199 204 200 203 202 196 192 183 180 186 196 209 201 212 227 211 181 172 313 326 326 329 329 325 320 322 322 322 328